AirNav  
 
 678 users online  

TS10 Sheraton Spindletop Hotel Heliport
Beaumont, Texas, USA

GOING TO BEAUMONT?


FAA INFORMATION EFFECTIVE 01 FEBRUARY 2018

Location

FAA Identifier: TS10
Lat/Long: 30-06-04.7640N / 094-07-51.6500W
30-06.079400N / 094-07.860833W
30.1013233 / -94.1310139
(estimated)
Elevation: 25 ft. / 8 m (estimated)
Variation: 05E (1985)
Time zone: UTC -6 (UTC -5 during Daylight Saving Time)
Zip code: 77703

Heliport Operations

Heliport use: Private use. Permission required prior to landing
Activation date: 12/1983
Control tower: no
ARTCC: HOUSTON CENTER
FSS: MONTGOMERY COUNTY FLIGHT SERVICE STATION
FOR FP FILING CALL CXO FSS 1-800-833-5602.
Attendance: UNATNDD
Segmented circle: no

Heliport Communications

WX AWOS-3PT at BMT (5 nm SW): 118.425 (409-866-2832)
WX ASOS at BPT (11 nm SE): PHONE 409-722-3408
WX AWOS-3 at ORG (17 nm E): 118.975 (409-670-9591)

Nearby radio navigation aids

VOR radial/distance  VOR name  Freq  Var
BPTr320/11.1BEAUMONT VOR/DME114.5007E
SBIr342/25.3SABINE PASS VOR/DME115.4007E
DASr096/27.2DAISETTA VORTAC116.9005E

 
NDB name  Hdg/Dist  Freq  Var  ID
GOODHUE059/4.536807EGDE --. -.. .
HARDIN COUNTY151/15.652404EHRD .... .-. -..
ORANGE271/17.521105EORG --- .-. --.
SULPHUR257/37.327804EAUR .- ..- .-.

Heliport Services

Runway Information

Helipad H1

Dimensions: 60 x 60 ft. / 18 x 18 m
Surface: concrete
Traffic pattern: leftleft
Obstructions: pline
PLINE EAST; SIGN SE; POLES SOUTH.

Heliport Ownership and Management from official FAA records

Ownership: Privately-owned
Owner: SPINDLETOP ENTERPRISES, INC.
2525 N 11TH ST
BEAUMONT, TX 77703
Phone 409-898-8570
Manager: JACK HERZIK
2525 N 11TH ST
BEAUMONT, TX 77703
Phone 409-898-8570

Instrument Procedures

There are no published instrument procedures at TS10.

Some nearby airports with instrument procedures:

KBMT - Beaumont Municipal Airport (5 nm SW)
KBPT - Jack Brooks Regional Airport (11 nm SE)
45R - Hawthorne Field Airport (16 nm NW)
KORG - Orange County Airport (17 nm E)
T78 - Liberty Municipal Airport (29 nm W)
 
Loc | Ops | Rwys | IFR | FBO | Links
Com | Nav | Svcs | Stats | Notes

AirNav Hotels Sweepstakes
 
Area around TS10 (Sheraton Spindletop Hotel Heliport)
 
Road maps at: MapQuest Bing Google
 
Aerial photo
No photo
 
Sectional chart

 
Airport distance calculator
Flying to Sheraton Spindletop Hotel Heliport? Find the distance to fly.

From to TS10

Sunrise and sunset
Times for 24-Feb-2018
 Local
(UTC-6)
 Zulu
(UTC)
Morning civil twilight06:2512:25
Sunrise06:4912:49
Sunset18:1100:11
Evening civil twilight18:3500:35

Current date and time
Zulu (UTC)  25-Feb-2018 04:48:24
Local (UTC-6)  24-Feb-2018 22:48:24
 
METAR
KBMT 
5nm SW 
250435Z AUTO 19005KT 7SM OVC007 23/21 A2998 RMK AO2 T02320212
KBPT 
10nm SE 
250353Z 18009KT 7SM OVC006 22/21 A2995 RMK AO2 SLP141 T02220211
KORG 
17nm E 
250435Z AUTO 20010KT 5SM BR OVC006 23/23 A2998 RMK AO2 T02270225
TAF
KBPT 
10nm SE 
242129Z 2421/2518 19015G25KT P6SM VCSH BKN015 BKN025 OVC040 FM250000 19012G18KT P6SM VCSH SCT007 OVC015 FM250300 18012KT 4SM -SHRA BR BKN007 OVC010 TEMPO 2508/2512 1SM TSRA OVC007CB FM251500 06006KT P6SM SHRA OVC008
NOTAMs
Click for the latest NOTAMs
NOTAMs are issued by the DoD/FAA and will open in a separate window not controlled by AirNav.

 

 
 

Would you like to see your business listed on this page?

 If your business provides an interesting product or service to pilots, flight crews, aircraft, or users of the Sheraton Spindletop Hotel Heliport, you should consider listing it here.  To start the listing process, click on the button below
 
Add a business
 

Other Pages about Sheraton Spindletop Hotel Heliport

Update a link
 
Copyright © AirNav, LLC. All rights reserved. Privacy Policy  Contact